Data supplied by UK-AIR on 31/3/2012
All Data GMT hour ending 
Status: R =Ratified P=Provisional,P*=As supplied
,,St Osyth,,,,,,,,,,,,,,,,,,,,,,,
Date,time,"Nitric oxide",status,unit,"Nitrogen dioxide",status,unit,"Nitrogen oxides as nitrogen dioxide",status,unit,"Ozone",status,unit
 
01-01-2011,01:00,14.0,R,ugm-3,26.0,R,ugm-3,47.4,R,ugm-3,18,R,ugm-3
01-01-2011,02:00,10.8,R,ugm-3,22.3,R,ugm-3,38.8,R,ugm-3,24,R,ugm-3
01-01-2011,03:00,9.9,R,ugm-3,22.3,R,ugm-3,37.4,R,ugm-3,24,R,ugm-3
01-01-2011,04:00,9.6,R,ugm-3,22.7,R,ugm-3,37.4,R,ugm-3,24,R,ugm-3
01-01-2011,05:00,8.8,R,ugm-3,25.2,R,ugm-3,38.6,R,ugm-3,22,R,ugm-3
01-01-2011,06:00,8.4,R,ugm-3,23.3,R,ugm-3,36.1,R,ugm-3,20,R,ugm-3
01-01-2011,07:00,8.8,R,ugm-3,19.1,R,ugm-3,32.5,R,ugm-3,22,R,ugm-3
01-01-2011,08:00,8.8,R,ugm-3,17.2,R,ugm-3,30.6,R,ugm-3,22,R,ugm-3
01-01-2011,09:00,8.8,R,ugm-3,14.3,R,ugm-3,27.7,R,ugm-3,22,R,ugm-3
01-01-2011,10:00,9.6,R,ugm-3,13.9,R,ugm-3,28.7,R,ugm-3,22,R,ugm-3
01-01-2011,11:00,9.4,R,ugm-3,12.0,R,ugm-3,26.4,R,ugm-3,24,R,ugm-3
01-01-2011,12:00,6.9,R,ugm-3,14.3,R,ugm-3,24.8,R,ugm-3,30,R,ugm-3
01-01-2011,13:00,5.1,R,ugm-3,13.4,R,ugm-3,21.2,R,ugm-3,32,R,ugm-3
01-01-2011,14:00,4.8,R,ugm-3,12.4,R,ugm-3,19.7,R,ugm-3,38,R,ugm-3
01-01-2011,15:00,4.3,R,ugm-3,10.9,R,ugm-3,17.4,R,ugm-3,52,R,ugm-3
01-01-2011,16:00,3.6,R,ugm-3,10.5,R,ugm-3,16.0,R,ugm-3,56,R,ugm-3
01-01-2011,17:00,4.8,R,ugm-3,10.5,R,ugm-3,17.8,R,ugm-3,50,R,ugm-3
01-01-2011,18:00,3.6,R,ugm-3,12.8,R,ugm-3,18.3,R,ugm-3,52,R,ugm-3
01-01-2011,19:00,3.6,R,ugm-3,9.6,R,ugm-3,15.1,R,ugm-3,56,R,ugm-3
01-01-2011,20:00,3.6,R,ugm-3,9.9,R,ugm-3,15.5,R,ugm-3,54,R,ugm-3
01-01-2011,21:00,2.8,R,ugm-3,11.1,R,ugm-3,15.3,R,ugm-3,54,R,ugm-3
01-01-2011,22:00,2.4,R,ugm-3,11.5,R,ugm-3,15.1,R,ugm-3,50,R,ugm-3
01-01-2011,23:00,2.4,R,ugm-3,11.8,R,ugm-3,15.5,R,ugm-3,48,R,ugm-3
01-01-2011,24:00,2.4,R,ugm-3,11.8,R,ugm-3,15.5,R,ugm-3,44,R,ugm-3
02-01-2011,01:00,2.4,R,ugm-3,12.0,R,ugm-3,15.7,R,ugm-3,44,R,ugm-3
02-01-2011,02:00,2.4,R,ugm-3,13.8,R,ugm-3,17.4,R,ugm-3,48,R,ugm-3
02-01-2011,03:00,2.4,R,ugm-3,9.6,R,ugm-3,13.2,R,ugm-3,54,R,ugm-3
02-01-2011,04:00,1.3,R,ugm-3,8.0,R,ugm-3,9.9,R,ugm-3,58,R,ugm-3
02-01-2011,05:00,1.5,R,ugm-3,8.4,R,ugm-3,10.7,R,ugm-3,54,R,ugm-3
02-01-2011,06:00,1.5,R,ugm-3,10.3,R,ugm-3,12.6,R,ugm-3,54,R,ugm-3
02-01-2011,07:00,1.3,R,ugm-3,10.9,R,ugm-3,12.8,R,ugm-3,50,R,ugm-3
02-01-2011,08:00,1.9,R,ugm-3,13.8,R,ugm-3,16.6,R,ugm-3,42,R,ugm-3
02-01-2011,09:00,2.4,R,ugm-3,13.2,R,ugm-3,16.8,R,ugm-3,38,R,ugm-3
02-01-2011,10:00,2.4,R,ugm-3,13.8,R,ugm-3,17.4,R,ugm-3,38,R,ugm-3
02-01-2011,11:00,1.5,R,ugm-3,12.8,R,ugm-3,15.1,R,ugm-3,42,R,ugm-3
02-01-2011,12:00,1.3,R,ugm-3,13.6,R,ugm-3,15.5,R,ugm-3,44,R,ugm-3
02-01-2011,13:00,1.3,R,ugm-3,12.2,R,ugm-3,14.1,R,ugm-3,48,R,ugm-3
02-01-2011,14:00,1.3,R,ugm-3,12.2,R,ugm-3,14.1,R,ugm-3,48,R,ugm-3
02-01-2011,15:00,1.3,R,ugm-3,11.3,R,ugm-3,13.2,R,ugm-3,52,R,ugm-3
02-01-2011,16:00,1.0,R,ugm-3,12.2,R,ugm-3,13.8,R,ugm-3,52,R,ugm-3
02-01-2011,17:00,0.6,R,ugm-3,14.1,R,ugm-3,15.1,R,ugm-3,48,R,ugm-3
02-01-2011,18:00,1.0,R,ugm-3,14.1,R,ugm-3,15.7,R,ugm-3,46,R,ugm-3
02-01-2011,19:00,0.0,R,ugm-3,16.0,R,ugm-3,16.0,R,ugm-3,46,R,ugm-3
02-01-2011,20:00,0.0,R,ugm-3,17.8,R,ugm-3,17.8,R,ugm-3,44,R,ugm-3
02-01-2011,21:00,1.0,R,ugm-3,19.7,R,ugm-3,21.2,R,ugm-3,38,R,ugm-3
02-01-2011,22:00,1.3,R,ugm-3,23.5,R,ugm-3,25.4,R,ugm-3,36,R,ugm-3
02-01-2011,23:00,0.4,R,ugm-3,24.4,R,ugm-3,25.0,R,ugm-3,34,R,ugm-3
02-01-2011,24:00,1.3,R,ugm-3,18.7,R,ugm-3,20.6,R,ugm-3,36,R,ugm-3
03-01-2011,01:00,1.3,R,ugm-3,17.4,R,ugm-3,19.3,R,ugm-3,38,R,ugm-3
03-01-2011,02:00,2.0,R,ugm-3,18.1,R,ugm-3,21.2,R,ugm-3,38,R,ugm-3
03-01-2011,03:00,1.9,R,ugm-3,18.0,R,ugm-3,20.8,R,ugm-3,36,R,ugm-3
03-01-2011,04:00,2.8,R,ugm-3,16.0,R,ugm-3,20.2,R,ugm-3,34,R,ugm-3
03-01-2011,05:00,3.4,R,ugm-3,15.7,R,ugm-3,20.8,R,ugm-3,34,R,ugm-3
03-01-2011,06:00,4.0,R,ugm-3,18.5,R,ugm-3,24.6,R,ugm-3,34,R,ugm-3
03-01-2011,07:00,4.3,R,ugm-3,18.0,R,ugm-3,24.4,R,ugm-3,32,R,ugm-3
03-01-2011,08:00,4.3,R,ugm-3,19.9,R,ugm-3,26.4,R,ugm-3,26,R,ugm-3
03-01-2011,09:00,4.9,R,ugm-3,22.5,R,ugm-3,30.0,R,ugm-3,22,R,ugm-3
03-01-2011,10:00,6.4,R,ugm-3,25.2,R,ugm-3,35.0,R,ugm-3,22,R,ugm-3
03-01-2011,11:00,7.9,R,ugm-3,24.8,R,ugm-3,36.9,R,ugm-3,24,R,ugm-3
03-01-2011,12:00,8.4,R,ugm-3,24.8,R,ugm-3,37.6,R,ugm-3,28,R,ugm-3
03-01-2011,13:00,7.9,R,ugm-3,25.2,R,ugm-3,37.2,R,ugm-3,30,R,ugm-3
03-01-2011,14:00,7.5,R,ugm-3,25.2,R,ugm-3,36.7,R,ugm-3,32,R,ugm-3
03-01-2011,15:00,8.4,R,ugm-3,25.8,R,ugm-3,38.6,R,ugm-3,32,R,ugm-3
03-01-2011,16:00,6.9,R,ugm-3,27.5,R,ugm-3,38.0,R,ugm-3,28,R,ugm-3
03-01-2011,17:00,8.1,R,ugm-3,26.9,R,ugm-3,39.3,R,ugm-3,24,R,ugm-3
03-01-2011,18:00,10.0,R,ugm-3,26.2,R,ugm-3,41.4,R,ugm-3,22,R,ugm-3
03-01-2011,19:00,8.4,R,ugm-3,51.0,R,ugm-3,63.8,R,ugm-3,10,R,ugm-3
03-01-2011,20:00,7.9,R,ugm-3,45.8,R,ugm-3,57.9,R,ugm-3,18,R,ugm-3
03-01-2011,21:00,6.0,R,ugm-3,36.9,R,ugm-3,46.0,R,ugm-3,24,R,ugm-3
03-01-2011,22:00,5.5,R,ugm-3,24.1,R,ugm-3,32.5,R,ugm-3,40,R,ugm-3
03-01-2011,23:00,4.9,R,ugm-3,29.6,R,ugm-3,37.1,R,ugm-3,36,R,ugm-3
03-01-2011,24:00,4.9,R,ugm-3,26.9,R,ugm-3,34.4,R,ugm-3,38,R,ugm-3
04-01-2011,01:00,3.6,R,ugm-3,20.1,R,ugm-3,25.6,R,ugm-3,46,R,ugm-3
04-01-2011,02:00,2.4,R,ugm-3,22.2,R,ugm-3,25.8,R,ugm-3,46,R,ugm-3
04-01-2011,03:00,2.4,R,ugm-3,22.2,R,ugm-3,25.8,R,ugm-3,44,R,ugm-3
04-01-2011,04:00,3.6,R,ugm-3,18.5,R,ugm-3,24.1,R,ugm-3,44,R,ugm-3
04-01-2011,05:00,3.6,R,ugm-3,19.3,R,ugm-3,24.8,R,ugm-3,46,R,ugm-3
04-01-2011,06:00,3.6,R,ugm-3,10.9,R,ugm-3,16.4,R,ugm-3,58,R,ugm-3
04-01-2011,07:00,3.6,R,ugm-3,11.3,R,ugm-3,16.8,R,ugm-3,54,R,ugm-3
04-01-2011,08:00,2.8,R,ugm-3,11.1,R,ugm-3,15.3,R,ugm-3,54,R,ugm-3
04-01-2011,09:00,3.6,R,ugm-3,11.8,R,ugm-3,17.4,R,ugm-3,48,R,ugm-3
04-01-2011,10:00,4.5,R,ugm-3,15.7,R,ugm-3,22.5,R,ugm-3,40,R,ugm-3
04-01-2011,11:00,7.3,R,ugm-3,28.5,R,ugm-3,39.5,R,ugm-3,28,R,ugm-3
04-01-2011,12:00,8.8,R,ugm-3,36.9,R,ugm-3,50.2,R,ugm-3,26,R,ugm-3
04-01-2011,13:00,10.0,R,ugm-3,38.4,R,ugm-3,53.7,R,ugm-3,26,R,ugm-3
04-01-2011,14:00,11.8,R,ugm-3,36.1,R,ugm-3,54.1,R,ugm-3,28,R,ugm-3
04-01-2011,15:00,10.3,R,ugm-3,36.5,R,ugm-3,52.1,R,ugm-3,26,R,ugm-3
04-01-2011,16:00,13.0,R,ugm-3,51.2,R,ugm-3,71.1,R,ugm-3,12,R,ugm-3
04-01-2011,17:00,5.8,R,ugm-3,41.1,R,ugm-3,49.9,R,ugm-3,16,R,ugm-3
04-01-2011,18:00,6.0,R,ugm-3,45.3,R,ugm-3,54.4,R,ugm-3,14,R,ugm-3
04-01-2011,19:00,9.0,R,ugm-3,61.9,R,ugm-3,75.6,R,ugm-3,4,R,ugm-3
04-01-2011,20:00,5.8,R,ugm-3,47.2,R,ugm-3,56.0,R,ugm-3,14,R,ugm-3
04-01-2011,21:00,5.1,R,ugm-3,40.1,R,ugm-3,47.9,R,ugm-3,22,R,ugm-3
04-01-2011,22:00,4.0,R,ugm-3,24.4,R,ugm-3,30.6,R,ugm-3,40,R,ugm-3
04-01-2011,23:00,3.6,R,ugm-3,23.1,R,ugm-3,28.7,R,ugm-3,38,R,ugm-3
04-01-2011,24:00,3.6,R,ugm-3,17.0,R,ugm-3,22.5,R,ugm-3,46,R,ugm-3
05-01-2011,01:00,3.6,R,ugm-3,15.1,R,ugm-3,20.6,R,ugm-3,50,R,ugm-3
05-01-2011,02:00,2.4,R,ugm-3,24.4,R,ugm-3,28.1,R,ugm-3,44,R,ugm-3
05-01-2011,03:00,2.1,R,ugm-3,12.8,R,ugm-3,16.0,R,ugm-3,56,R,ugm-3
05-01-2011,04:00,1.3,R,ugm-3,14.5,R,ugm-3,16.4,R,ugm-3,54,R,ugm-3
05-01-2011,05:00,1.5,R,ugm-3,13.8,R,ugm-3,16.0,R,ugm-3,52,R,ugm-3
05-01-2011,06:00,2.4,R,ugm-3,14.3,R,ugm-3,18.0,R,ugm-3,48,R,ugm-3
05-01-2011,07:00,2.4,R,ugm-3,13.8,R,ugm-3,17.4,R,ugm-3,46,R,ugm-3
05-01-2011,08:00,2.4,R,ugm-3,14.3,R,ugm-3,18.0,R,ugm-3,46,R,ugm-3
05-01-2011,09:00,2.4,R,ugm-3,14.3,R,ugm-3,18.0,R,ugm-3,50,R,ugm-3
05-01-2011,10:00,5.1,R,ugm-3,20.4,R,ugm-3,28.3,R,ugm-3,40,R,ugm-3
05-01-2011,11:00,5.8,R,ugm-3,18.5,R,ugm-3,27.3,R,ugm-3,42,R,ugm-3
05-01-2011,12:00,6.4,R,ugm-3,16.8,R,ugm-3,26.5,R,ugm-3,46,R,ugm-3
05-01-2011,13:00,6.4,R,ugm-3,15.7,R,ugm-3,25.4,R,ugm-3,48,R,ugm-3
05-01-2011,14:00,4.6,R,ugm-3,13.8,R,ugm-3,20.8,R,ugm-3,60,R,ugm-3
05-01-2011,15:00,3.6,R,ugm-3,13.2,R,ugm-3,18.7,R,ugm-3,60,R,ugm-3
05-01-2011,16:00,3.6,R,ugm-3,17.6,R,ugm-3,23.1,R,ugm-3,56,R,ugm-3
05-01-2011,17:00,3.6,R,ugm-3,19.9,R,ugm-3,25.4,R,ugm-3,50,R,ugm-3
05-01-2011,18:00,4.0,R,ugm-3,22.3,R,ugm-3,28.5,R,ugm-3,44,R,ugm-3
05-01-2011,19:00,4.9,R,ugm-3,18.9,R,ugm-3,26.4,R,ugm-3,40,R,ugm-3
05-01-2011,20:00,4.9,R,ugm-3,17.6,R,ugm-3,25.0,R,ugm-3,38,R,ugm-3
05-01-2011,21:00,4.9,R,ugm-3,16.0,R,ugm-3,23.5,R,ugm-3,40,R,ugm-3
05-01-2011,22:00,4.9,R,ugm-3,17.0,R,ugm-3,24.4,R,ugm-3,38,R,ugm-3
05-01-2011,23:00,5.1,R,ugm-3,20.8,R,ugm-3,28.7,R,ugm-3,30,R,ugm-3
05-01-2011,24:00,6.0,R,ugm-3,24.3,R,ugm-3,33.4,R,ugm-3,24,R,ugm-3
06-01-2011,01:00,7.3,R,ugm-3,30.2,R,ugm-3,41.3,R,ugm-3,18,R,ugm-3
06-01-2011,02:00,7.3,R,ugm-3,25.2,R,ugm-3,36.3,R,ugm-3,20,R,ugm-3
06-01-2011,03:00,8.8,R,ugm-3,32.7,R,ugm-3,46.0,R,ugm-3,14,R,ugm-3
06-01-2011,04:00,9.6,R,ugm-3,39.3,R,ugm-3,54.1,R,ugm-3,10,R,ugm-3
06-01-2011,05:00,9.6,R,ugm-3,34.2,R,ugm-3,48.9,R,ugm-3,16,R,ugm-3
06-01-2011,06:00,12.1,R,ugm-3,25.8,R,ugm-3,44.3,R,ugm-3,20,R,ugm-3
06-01-2011,07:00,17.5,R,ugm-3,24.1,R,ugm-3,50.8,R,ugm-3,16,R,ugm-3
06-01-2011,08:00,16.5,R,ugm-3,24.1,R,ugm-3,49.3,R,ugm-3,14,R,ugm-3
06-01-2011,09:00,19.3,R,ugm-3,21.8,R,ugm-3,51.2,R,ugm-3,10,R,ugm-3
06-01-2011,10:00,23.0,R,ugm-3,22.3,R,ugm-3,57.5,R,ugm-3,10,R,ugm-3
06-01-2011,11:00,20.3,R,ugm-3,34.4,R,ugm-3,65.3,R,ugm-3,18,R,ugm-3
06-01-2011,12:00,15.4,R,ugm-3,35.7,R,ugm-3,59.2,R,ugm-3,24,R,ugm-3
06-01-2011,13:00,13.6,R,ugm-3,34.2,R,ugm-3,55.0,R,ugm-3,30,R,ugm-3
06-01-2011,14:00,13.6,R,ugm-3,37.4,R,ugm-3,58.3,R,ugm-3,28,R,ugm-3
06-01-2011,15:00,15.1,R,ugm-3,55.0,R,ugm-3,78.1,R,ugm-3,20,R,ugm-3
06-01-2011,16:00,7.9,R,ugm-3,20.4,R,ugm-3,32.5,R,ugm-3,58,R,ugm-3
06-01-2011,17:00,7.9,R,ugm-3,19.5,R,ugm-3,31.5,R,ugm-3,52,R,ugm-3
06-01-2011,18:00,8.5,R,ugm-3,26.9,R,ugm-3,39.9,R,ugm-3,38,R,ugm-3
06-01-2011,19:00,8.5,R,ugm-3,25.0,R,ugm-3,38.0,R,ugm-3,40,R,ugm-3
06-01-2011,20:00,9.1,R,ugm-3,38.4,R,ugm-3,52.3,R,ugm-3,22,R,ugm-3
06-01-2011,21:00,12.1,R,ugm-3,56.7,R,ugm-3,75.3,R,ugm-3,6,R,ugm-3
06-01-2011,22:00,13.9,R,ugm-3,61.5,R,ugm-3,82.7,R,ugm-3,2,R,ugm-3
06-01-2011,23:00,26.9,R,ugm-3,57.1,R,ugm-3,98.2,R,ugm-3,2,R,ugm-3
06-01-2011,24:00,35.3,R,ugm-3,51.0,R,ugm-3,104.9,R,ugm-3,2,R,ugm-3
07-01-2011,01:00,36.6,R,ugm-3,49.5,R,ugm-3,105.4,R,ugm-3,2,R,ugm-3
07-01-2011,02:00,13.3,R,ugm-3,46.2,R,ugm-3,66.5,R,ugm-3,14,R,ugm-3
07-01-2011,03:00,11.9,R,ugm-3,38.0,R,ugm-3,56.2,R,ugm-3,18,R,ugm-3
07-01-2011,04:00,12.1,R,ugm-3,36.1,R,ugm-3,54.6,R,ugm-3,20,R,ugm-3
07-01-2011,05:00,12.1,R,ugm-3,28.5,R,ugm-3,47.0,R,ugm-3,26,R,ugm-3
07-01-2011,06:00,12.1,R,ugm-3,25.8,R,ugm-3,44.3,R,ugm-3,26,R,ugm-3
07-01-2011,07:00,11.3,R,ugm-3,29.0,R,ugm-3,46.2,R,ugm-3,24,R,ugm-3
07-01-2011,08:00,9.6,R,ugm-3,30.0,R,ugm-3,44.7,R,ugm-3,26,R,ugm-3
07-01-2011,09:00,7.6,R,ugm-3,18.5,R,ugm-3,30.2,R,ugm-3,46,R,ugm-3
07-01-2011,10:00,5.1,R,ugm-3,25.6,R,ugm-3,33.4,R,ugm-3,42,R,ugm-3
07-01-2011,11:00,4.9,R,ugm-3,33.4,R,ugm-3,40.9,R,ugm-3,30,R,ugm-3
07-01-2011,12:00,7.5,R,ugm-3,45.5,R,ugm-3,56.9,R,ugm-3,14,R,ugm-3
07-01-2011,13:00,9.1,R,ugm-3,41.3,R,ugm-3,55.2,R,ugm-3,18,R,ugm-3
07-01-2011,14:00,7.5,R,ugm-3,32.7,R,ugm-3,44.1,R,ugm-3,30,R,ugm-3
07-01-2011,15:00,6.6,R,ugm-3,25.6,R,ugm-3,35.7,R,ugm-3,46,R,ugm-3
07-01-2011,16:00,4.9,R,ugm-3,18.9,R,ugm-3,26.4,R,ugm-3,60,R,ugm-3
07-01-2011,17:00,4.9,R,ugm-3,24.1,R,ugm-3,31.5,R,ugm-3,58,R,ugm-3
07-01-2011,18:00,4.9,R,ugm-3,24.1,R,ugm-3,31.5,R,ugm-3,54,R,ugm-3
07-01-2011,19:00,4.9,R,ugm-3,22.7,R,ugm-3,30.2,R,ugm-3,54,R,ugm-3
07-01-2011,20:00,4.9,R,ugm-3,13.2,R,ugm-3,20.6,R,ugm-3,66,R,ugm-3
07-01-2011,21:00,4.6,R,ugm-3,15.7,R,ugm-3,22.7,R,ugm-3,60,R,ugm-3
07-01-2011,22:00,3.6,R,ugm-3,15.1,R,ugm-3,20.6,R,ugm-3,56,R,ugm-3
07-01-2011,23:00,4.0,R,ugm-3,16.0,R,ugm-3,22.2,R,ugm-3,54,R,ugm-3
07-01-2011,24:00,4.9,R,ugm-3,18.9,R,ugm-3,26.4,R,ugm-3,50,R,ugm-3
08-01-2011,01:00,7.3,R,ugm-3,17.8,R,ugm-3,28.8,R,ugm-3,42,R,ugm-3
08-01-2011,02:00,7.3,R,ugm-3,16.6,R,ugm-3,27.7,R,ugm-3,48,R,ugm-3
08-01-2011,03:00,8.3,R,ugm-3,15.3,R,ugm-3,27.9,R,ugm-3,56,R,ugm-3
08-01-2011,04:00,6.6,R,ugm-3,12.4,R,ugm-3,22.5,R,ugm-3,56,R,ugm-3
08-01-2011,05:00,6.4,R,ugm-3,10.1,R,ugm-3,19.9,R,ugm-3,64,R,ugm-3
08-01-2011,06:00,6.0,R,ugm-3,11.1,R,ugm-3,20.2,R,ugm-3,68,R,ugm-3
08-01-2011,07:00,6.0,R,ugm-3,7.8,R,ugm-3,17.0,R,ugm-3,74,R,ugm-3
08-01-2011,08:00,4.3,R,ugm-3,7.3,R,ugm-3,13.8,R,ugm-3,80,R,ugm-3
08-01-2011,09:00,1.9,R,ugm-3,10.5,R,ugm-3,13.4,R,ugm-3,78,R,ugm-3
08-01-2011,10:00,0.0,R,ugm-3,10.9,R,ugm-3,10.9,R,ugm-3,76,R,ugm-3
08-01-2011,11:00,1.3,R,ugm-3,12.8,R,ugm-3,14.7,R,ugm-3,72,R,ugm-3
08-01-2011,12:00,1.3,R,ugm-3,10.3,R,ugm-3,12.2,R,ugm-3,76,R,ugm-3
08-01-2011,13:00,1.9,R,ugm-3,14.7,R,ugm-3,17.6,R,ugm-3,68,R,ugm-3
08-01-2011,14:00,2.4,R,ugm-3,15.3,R,ugm-3,18.9,R,ugm-3,54,R,ugm-3
08-01-2011,15:00,2.4,R,ugm-3,13.4,R,ugm-3,17.0,R,ugm-3,52,R,ugm-3
08-01-2011,16:00,3.6,R,ugm-3,13.4,R,ugm-3,18.9,R,ugm-3,48,R,ugm-3
08-01-2011,17:00,5.5,R,ugm-3,14.7,R,ugm-3,23.1,R,ugm-3,46,R,ugm-3
08-01-2011,18:00,7.6,R,ugm-3,12.4,R,ugm-3,24.1,R,ugm-3,52,R,ugm-3
08-01-2011,19:00,9.1,R,ugm-3,14.5,R,ugm-3,28.5,R,ugm-3,48,R,ugm-3
08-01-2011,20:00,9.6,R,ugm-3,27.1,R,ugm-3,41.8,R,ugm-3,36,R,ugm-3
08-01-2011,21:00,10.0,R,ugm-3,46.4,R,ugm-3,61.7,R,ugm-3,20,R,ugm-3
08-01-2011,22:00,9.6,R,ugm-3,47.9,R,ugm-3,62.6,R,ugm-3,22,R,ugm-3
08-01-2011,23:00,8.5,R,ugm-3,33.6,R,ugm-3,46.6,R,ugm-3,34,R,ugm-3
08-01-2011,24:00,5.5,R,ugm-3,26.9,R,ugm-3,35.3,R,ugm-3,40,R,ugm-3
09-01-2011,01:00,4.0,R,ugm-3,25.2,R,ugm-3,31.3,R,ugm-3,40,R,ugm-3
09-01-2011,02:00,2.4,R,ugm-3,24.1,R,ugm-3,27.7,R,ugm-3,46,R,ugm-3
09-01-2011,03:00,2.4,R,ugm-3,16.6,R,ugm-3,20.2,R,ugm-3,52,R,ugm-3
09-01-2011,04:00,2.4,R,ugm-3,14.3,R,ugm-3,18.0,R,ugm-3,56,R,ugm-3
09-01-2011,05:00,1.5,R,ugm-3,14.7,R,ugm-3,17.0,R,ugm-3,56,R,ugm-3
09-01-2011,06:00,1.3,R,ugm-3,15.1,R,ugm-3,17.0,R,ugm-3,52,R,ugm-3
09-01-2011,07:00,2.4,R,ugm-3,13.4,R,ugm-3,17.0,R,ugm-3,52,R,ugm-3
09-01-2011,08:00,2.4,R,ugm-3,13.9,R,ugm-3,17.6,R,ugm-3,52,R,ugm-3
09-01-2011,09:00,2.8,R,ugm-3,16.6,R,ugm-3,20.8,R,ugm-3,48,R,ugm-3
09-01-2011,10:00,5.1,R,ugm-3,24.3,R,ugm-3,32.1,R,ugm-3,42,R,ugm-3
09-01-2011,11:00,6.0,R,ugm-3,23.3,R,ugm-3,32.5,R,ugm-3,46,R,ugm-3
09-01-2011,12:00,6.0,R,ugm-3,22.9,R,ugm-3,32.1,R,ugm-3,50,R,ugm-3
09-01-2011,13:00,3.0,R,ugm-3,14.7,R,ugm-3,19.3,R,ugm-3,60,R,ugm-3
09-01-2011,14:00,2.4,R,ugm-3,11.5,R,ugm-3,15.1,R,ugm-3,62,R,ugm-3
09-01-2011,15:00,2.8,R,ugm-3,17.2,R,ugm-3,21.4,R,ugm-3,56,R,ugm-3
09-01-2011,16:00,2.4,R,ugm-3,20.4,R,ugm-3,24.1,R,ugm-3,52,R,ugm-3
09-01-2011,17:00,2.4,R,ugm-3,20.8,R,ugm-3,24.4,R,ugm-3,46,R,ugm-3
09-01-2011,18:00,5.5,R,ugm-3,20.8,R,ugm-3,29.2,R,ugm-3,34,R,ugm-3
09-01-2011,19:00,3.6,R,ugm-3,24.3,R,ugm-3,29.8,R,ugm-3,38,R,ugm-3
09-01-2011,20:00,4.6,R,ugm-3,36.3,R,ugm-3,43.4,R,ugm-3,24,R,ugm-3
09-01-2011,21:00,5.1,R,ugm-3,47.8,R,ugm-3,55.6,R,ugm-3,14,R,ugm-3
09-01-2011,22:00,8.5,R,ugm-3,61.5,R,ugm-3,74.5,R,ugm-3,4,R,ugm-3
09-01-2011,23:00,10.0,R,ugm-3,70.5,R,ugm-3,85.8,R,ugm-3,2,R,ugm-3
09-01-2011,24:00,5.8,R,ugm-3,53.9,R,ugm-3,62.6,R,ugm-3,12,R,ugm-3
10-01-2011,01:00,8.0,R,ugm-3,35.5,R,ugm-3,47.8,R,ugm-3,20,R,ugm-3
10-01-2011,02:00,5.3,R,ugm-3,42.2,R,ugm-3,50.2,R,ugm-3,20,R,ugm-3
10-01-2011,03:00,4.9,R,ugm-3,36.5,R,ugm-3,43.9,R,ugm-3,24,R,ugm-3
10-01-2011,04:00,3.6,R,ugm-3,27.3,R,ugm-3,32.9,R,ugm-3,32,R,ugm-3
10-01-2011,05:00,3.6,R,ugm-3,14.7,R,ugm-3,20.2,R,ugm-3,46,R,ugm-3
10-01-2011,06:00,3.6,R,ugm-3,12.8,R,ugm-3,18.3,R,ugm-3,50,R,ugm-3
10-01-2011,07:00,3.6,R,ugm-3,12.0,R,ugm-3,17.6,R,ugm-3,56,R,ugm-3
10-01-2011,08:00,4.3,R,ugm-3,16.0,R,ugm-3,22.5,R,ugm-3,48,R,ugm-3
10-01-2011,09:00,3.6,R,ugm-3,14.7,R,ugm-3,20.2,R,ugm-3,50,R,ugm-3
10-01-2011,10:00,15.5,R,ugm-3,22.2,R,ugm-3,45.8,R,ugm-3,42,R,ugm-3
10-01-2011,11:00,5.8,R,ugm-3,19.5,R,ugm-3,28.3,R,ugm-3,42,R,ugm-3
10-01-2011,12:00,5.1,R,ugm-3,15.3,R,ugm-3,23.1,R,ugm-3,58,R,ugm-3
10-01-2011,13:00,4.0,R,ugm-3,14.1,R,ugm-3,20.2,R,ugm-3,64,R,ugm-3
10-01-2011,14:00,4.0,R,ugm-3,14.7,R,ugm-3,20.8,R,ugm-3,66,R,ugm-3
10-01-2011,15:00,19.6,R,ugm-3,18.5,R,ugm-3,48.5,R,ugm-3,62,R,ugm-3
10-01-2011,16:00,6.4,R,ugm-3,18.9,R,ugm-3,28.7,R,ugm-3,66,R,ugm-3
10-01-2011,17:00,4.9,R,ugm-3,15.7,R,ugm-3,23.1,R,ugm-3,66,R,ugm-3
10-01-2011,18:00,4.9,R,ugm-3,19.5,R,ugm-3,26.9,R,ugm-3,60,R,ugm-3
10-01-2011,19:00,4.9,R,ugm-3,15.7,R,ugm-3,23.1,R,ugm-3,66,R,ugm-3
10-01-2011,20:00,4.9,R,ugm-3,13.8,R,ugm-3,21.2,R,ugm-3,68,R,ugm-3
10-01-2011,21:00,4.9,R,ugm-3,11.8,R,ugm-3,19.3,R,ugm-3,66,R,ugm-3
10-01-2011,22:00,4.9,R,ugm-3,14.1,R,ugm-3,21.6,R,ugm-3,62,R,ugm-3
10-01-2011,23:00,4.9,R,ugm-3,11.5,R,ugm-3,18.9,R,ugm-3,68,R,ugm-3
10-01-2011,24:00,4.3,R,ugm-3,12.4,R,ugm-3,18.9,R,ugm-3,66,R,ugm-3
11-01-2011,01:00,4.9,R,ugm-3,12.6,R,ugm-3,20.1,R,ugm-3,64,R,ugm-3
11-01-2011,02:00,4.9,R,ugm-3,20.2,R,ugm-3,27.7,R,ugm-3,56,R,ugm-3
11-01-2011,03:00,4.9,R,ugm-3,18.0,R,ugm-3,25.4,R,ugm-3,56,R,ugm-3
11-01-2011,04:00,4.9,R,ugm-3,13.2,R,ugm-3,20.6,R,ugm-3,56,R,ugm-3
11-01-2011,05:00,4.9,R,ugm-3,12.4,R,ugm-3,19.9,R,ugm-3,54,R,ugm-3
11-01-2011,06:00,5.5,R,ugm-3,11.5,R,ugm-3,19.9,R,ugm-3,54,R,ugm-3
11-01-2011,07:00,6.6,R,ugm-3,9.7,R,ugm-3,19.9,R,ugm-3,54,R,ugm-3
11-01-2011,08:00,15.5,R,ugm-3,11.3,R,ugm-3,35.0,R,ugm-3,40,R,ugm-3
11-01-2011,09:00,12.1,R,ugm-3,11.3,R,ugm-3,29.8,R,ugm-3,40,R,ugm-3
11-01-2011,10:00,10.9,R,ugm-3,15.5,R,ugm-3,32.1,R,ugm-3,38,R,ugm-3
11-01-2011,11:00,13.0,R,ugm-3,35.1,R,ugm-3,55.0,R,ugm-3,30,R,ugm-3
11-01-2011,12:00,11.1,R,ugm-3,33.4,R,ugm-3,50.4,R,ugm-3,34,R,ugm-3
11-01-2011,13:00,3.4,R,ugm-3,14.3,R,ugm-3,19.5,R,ugm-3,44,R,ugm-3
11-01-2011,14:00,1.5,R,ugm-3,18.0,R,ugm-3,20.2,R,ugm-3,36,R,ugm-3
11-01-2011,15:00,1.3,R,ugm-3,24.1,R,ugm-3,26.0,R,ugm-3,32,R,ugm-3
11-01-2011,16:00,1.3,R,ugm-3,18.7,R,ugm-3,20.6,R,ugm-3,44,R,ugm-3
11-01-2011,17:00,1.3,R,ugm-3,16.6,R,ugm-3,18.5,R,ugm-3,50,R,ugm-3
11-01-2011,18:00,0.6,R,ugm-3,16.6,R,ugm-3,17.6,R,ugm-3,56,R,ugm-3
11-01-2011,19:00,0.0,R,ugm-3,16.0,R,ugm-3,16.0,R,ugm-3,58,R,ugm-3
11-01-2011,20:00,1.3,R,ugm-3,11.3,R,ugm-3,13.2,R,ugm-3,62,R,ugm-3
11-01-2011,21:00,3.0,R,ugm-3,11.5,R,ugm-3,16.0,R,ugm-3,52,R,ugm-3
11-01-2011,22:00,5.1,R,ugm-3,17.6,R,ugm-3,25.4,R,ugm-3,38,R,ugm-3
11-01-2011,23:00,7.6,R,ugm-3,22.3,R,ugm-3,34.0,R,ugm-3,30,R,ugm-3
11-01-2011,24:00,8.5,R,ugm-3,30.4,R,ugm-3,43.4,R,ugm-3,16,R,ugm-3
12-01-2011,01:00,8.5,R,ugm-3,32.3,R,ugm-3,45.3,R,ugm-3,14,R,ugm-3
12-01-2011,02:00,9.3,R,ugm-3,49.9,R,ugm-3,64.0,R,ugm-3,8,R,ugm-3
12-01-2011,03:00,16.6,R,ugm-3,67.4,R,ugm-3,92.8,R,ugm-3,4,R,ugm-3
12-01-2011,04:00,8.3,R,ugm-3,31.3,R,ugm-3,43.9,R,ugm-3,26,R,ugm-3
12-01-2011,05:00,6.6,R,ugm-3,22.0,R,ugm-3,32.1,R,ugm-3,34,R,ugm-3
12-01-2011,06:00,6.0,R,ugm-3,17.2,R,ugm-3,26.4,R,ugm-3,38,R,ugm-3
12-01-2011,07:00,6.0,R,ugm-3,18.7,R,ugm-3,27.9,R,ugm-3,36,R,ugm-3
12-01-2011,08:00,5.5,R,ugm-3,11.1,R,ugm-3,19.5,R,ugm-3,62,R,ugm-3
12-01-2011,09:00,4.9,R,ugm-3,11.5,R,ugm-3,18.9,R,ugm-3,64,R,ugm-3
12-01-2011,10:00,4.9,R,ugm-3,16.0,R,ugm-3,23.5,R,ugm-3,56,R,ugm-3
12-01-2011,11:00,5.1,R,ugm-3,18.9,R,ugm-3,26.7,R,ugm-3,46,R,ugm-3
12-01-2011,12:00,6.4,R,ugm-3,22.9,R,ugm-3,32.7,R,ugm-3,40,R,ugm-3
12-01-2011,13:00,6.6,R,ugm-3,30.9,R,ugm-3,41.1,R,ugm-3,32,R,ugm-3
12-01-2011,14:00,7.9,R,ugm-3,32.3,R,ugm-3,44.3,R,ugm-3,32,R,ugm-3
12-01-2011,15:00,7.3,R,ugm-3,36.1,R,ugm-3,47.2,R,ugm-3,28,R,ugm-3
12-01-2011,16:00,6.6,R,ugm-3,32.9,R,ugm-3,43.0,R,ugm-3,32,R,ugm-3
12-01-2011,17:00,7.0,R,ugm-3,37.1,R,ugm-3,47.8,R,ugm-3,24,R,ugm-3
12-01-2011,18:00,7.6,R,ugm-3,31.9,R,ugm-3,43.5,R,ugm-3,26,R,ugm-3
12-01-2011,19:00,7.0,R,ugm-3,32.9,R,ugm-3,43.5,R,ugm-3,26,R,ugm-3
12-01-2011,20:00,7.3,R,ugm-3,31.3,R,ugm-3,42.4,R,ugm-3,30,R,ugm-3
12-01-2011,21:00,7.9,R,ugm-3,33.2,R,ugm-3,45.3,R,ugm-3,26,R,ugm-3
12-01-2011,22:00,8.9,R,ugm-3,30.0,R,ugm-3,43.5,R,ugm-3,28,R,ugm-3
12-01-2011,23:00,10.6,R,ugm-3,24.8,R,ugm-3,41.1,R,ugm-3,32,R,ugm-3
12-01-2011,24:00,10.0,R,ugm-3,21.4,R,ugm-3,36.7,R,ugm-3,34,R,ugm-3
13-01-2011,01:00,10.1,R,ugm-3,18.0,R,ugm-3,33.4,R,ugm-3,40,R,ugm-3
13-01-2011,02:00,8.9,R,ugm-3,17.2,R,ugm-3,30.8,R,ugm-3,44,R,ugm-3
13-01-2011,03:00,8.9,R,ugm-3,14.3,R,ugm-3,27.9,R,ugm-3,48,R,ugm-3
13-01-2011,04:00,8.5,R,ugm-3,11.1,R,ugm-3,24.1,R,ugm-3,48,R,ugm-3
13-01-2011,05:00,8.5,R,ugm-3,13.0,R,ugm-3,26.0,R,ugm-3,46,R,ugm-3
13-01-2011,06:00,8.5,R,ugm-3,11.5,R,ugm-3,24.4,R,ugm-3,46,R,ugm-3
13-01-2011,07:00,7.9,R,ugm-3,12.4,R,ugm-3,24.4,R,ugm-3,48,R,ugm-3
13-01-2011,08:00,7.3,R,ugm-3,14.9,R,ugm-3,26.0,R,ugm-3,44,R,ugm-3
13-01-2011,09:00,7.6,R,ugm-3,18.7,R,ugm-3,30.4,R,ugm-3,40,R,ugm-3
13-01-2011,10:00,8.9,R,ugm-3,22.3,R,ugm-3,35.9,R,ugm-3,38,R,ugm-3
13-01-2011,11:00,10.4,R,ugm-3,23.3,R,ugm-3,39.2,R,ugm-3,36,R,ugm-3
13-01-2011,12:00,10.0,R,ugm-3,26.2,R,ugm-3,41.4,R,ugm-3,34,R,ugm-3
13-01-2011,13:00,9.1,R,ugm-3,25.2,R,ugm-3,39.2,R,ugm-3,36,R,ugm-3
13-01-2011,14:00,9.8,R,ugm-3,25.2,R,ugm-3,40.1,R,ugm-3,38,R,ugm-3
13-01-2011,15:00,10.0,R,ugm-3,26.5,R,ugm-3,41.8,R,ugm-3,34,R,ugm-3
13-01-2011,16:00,10.4,R,ugm-3,30.6,R,ugm-3,46.4,R,ugm-3,30,R,ugm-3
13-01-2011,17:00,8.9,R,ugm-3,28.1,R,ugm-3,41.6,R,ugm-3,30,R,ugm-3
13-01-2011,18:00,10.6,R,ugm-3,31.5,R,ugm-3,47.8,R,ugm-3,26,R,ugm-3
13-01-2011,19:00,10.6,R,ugm-3,29.0,R,ugm-3,45.3,R,ugm-3,28,R,ugm-3
13-01-2011,20:00,10.9,R,ugm-3,25.8,R,ugm-3,42.4,R,ugm-3,28,R,ugm-3
13-01-2011,21:00,11.3,R,ugm-3,24.8,R,ugm-3,42.0,R,ugm-3,28,R,ugm-3
13-01-2011,22:00,10.6,R,ugm-3,18.7,R,ugm-3,35.0,R,ugm-3,36,R,ugm-3
13-01-2011,23:00,7.9,R,ugm-3,15.9,R,ugm-3,27.9,R,ugm-3,42,R,ugm-3
13-01-2011,24:00,6.1,R,ugm-3,10.5,R,ugm-3,19.9,R,ugm-3,48,R,ugm-3
14-01-2011,01:00,4.9,R,ugm-3,10.1,R,ugm-3,17.6,R,ugm-3,50,R,ugm-3
14-01-2011,02:00,3.6,R,ugm-3,11.5,R,ugm-3,17.0,R,ugm-3,52,R,ugm-3
14-01-2011,03:00,3.6,R,ugm-3,12.0,R,ugm-3,17.6,R,ugm-3,50,R,ugm-3
14-01-2011,04:00,4.9,R,ugm-3,14.7,R,ugm-3,22.2,R,ugm-3,48,R,ugm-3
14-01-2011,05:00,4.0,R,ugm-3,18.5,R,ugm-3,24.6,R,ugm-3,46,R,ugm-3
14-01-2011,06:00,3.4,R,ugm-3,14.7,R,ugm-3,19.9,R,ugm-3,50,R,ugm-3
14-01-2011,07:00,3.6,R,ugm-3,13.9,R,ugm-3,19.5,R,ugm-3,54,R,ugm-3
14-01-2011,08:00,3.6,R,ugm-3,13.4,R,ugm-3,18.9,R,ugm-3,58,R,ugm-3
14-01-2011,09:00,4.6,R,ugm-3,15.7,R,ugm-3,22.7,R,ugm-3,48,R,ugm-3
14-01-2011,10:00,5.3,R,ugm-3,18.5,R,ugm-3,26.5,R,ugm-3,46,R,ugm-3
14-01-2011,11:00,5.3,R,ugm-3,18.0,R,ugm-3,26.0,R,ugm-3,46,R,ugm-3
14-01-2011,12:00,5.3,R,ugm-3,17.0,R,ugm-3,25.0,R,ugm-3,48,R,ugm-3
14-01-2011,13:00,4.3,R,ugm-3,17.6,R,ugm-3,24.1,R,ugm-3,50,R,ugm-3
14-01-2011,14:00,3.6,R,ugm-3,15.9,R,ugm-3,21.4,R,ugm-3,60,R,ugm-3
14-01-2011,15:00,3.6,R,ugm-3,19.5,R,ugm-3,25.0,R,ugm-3,62,R,ugm-3
14-01-2011,16:00,3.6,R,ugm-3,22.3,R,ugm-3,27.9,R,ugm-3,58,R,ugm-3
14-01-2011,17:00,3.6,R,ugm-3,17.6,R,ugm-3,23.1,R,ugm-3,64,R,ugm-3
14-01-2011,18:00,2.4,R,ugm-3,11.1,R,ugm-3,14.7,R,ugm-3,78,R,ugm-3
14-01-2011,19:00,3.6,R,ugm-3,19.1,R,ugm-3,24.6,R,ugm-3,60,R,ugm-3
14-01-2011,20:00,4.9,R,ugm-3,29.8,R,ugm-3,37.2,R,ugm-3,42,R,ugm-3
14-01-2011,21:00,5.9,R,ugm-3,28.8,R,ugm-3,37.8,R,ugm-3,40,R,ugm-3
14-01-2011,22:00,6.1,R,ugm-3,28.8,R,ugm-3,38.2,R,ugm-3,42,R,ugm-3
14-01-2011,23:00,4.9,R,ugm-3,24.6,R,ugm-3,32.1,R,ugm-3,46,R,ugm-3
14-01-2011,24:00,4.9,R,ugm-3,18.9,R,ugm-3,26.4,R,ugm-3,52,R,ugm-3
15-01-2011,01:00,6.5,R,ugm-3,18.3,R,ugm-3,28.3,R,ugm-3,48,R,ugm-3
15-01-2011,02:00,6.5,R,ugm-3,18.3,R,ugm-3,28.3,R,ugm-3,50,R,ugm-3
15-01-2011,03:00,5.5,R,ugm-3,12.8,R,ugm-3,21.2,R,ugm-3,56,R,ugm-3
15-01-2011,04:00,4.0,R,ugm-3,9.6,R,ugm-3,15.7,R,ugm-3,64,R,ugm-3
15-01-2011,05:00,3.6,R,ugm-3,10.5,R,ugm-3,16.0,R,ugm-3,64,R,ugm-3
15-01-2011,06:00,4.6,R,ugm-3,14.7,R,ugm-3,21.8,R,ugm-3,60,R,ugm-3
15-01-2011,07:00,4.9,R,ugm-3,10.1,R,ugm-3,17.6,R,ugm-3,68,R,ugm-3
15-01-2011,08:00,4.9,R,ugm-3,7.3,R,ugm-3,14.7,R,ugm-3,70,R,ugm-3
15-01-2011,09:00,3.4,R,ugm-3,10.5,R,ugm-3,15.7,R,ugm-3,68,R,ugm-3
15-01-2011,10:00,1.9,R,ugm-3,8.0,R,ugm-3,10.9,R,ugm-3,70,R,ugm-3
15-01-2011,11:00,1.3,R,ugm-3,8.0,R,ugm-3,9.9,R,ugm-3,70,R,ugm-3
15-01-2011,12:00,0.4,R,ugm-3,8.0,R,ugm-3,8.6,R,ugm-3,72,R,ugm-3
15-01-2011,13:00,0.0,R,ugm-3,8.0,R,ugm-3,8.0,R,ugm-3,74,R,ugm-3
15-01-2011,14:00,0.0,R,ugm-3,9.0,R,ugm-3,9.0,R,ugm-3,76,R,ugm-3
15-01-2011,15:00,1.0,R,ugm-3,7.4,R,ugm-3,9.0,R,ugm-3,76,R,ugm-3
15-01-2011,16:00,0.4,R,ugm-3,7.3,R,ugm-3,7.8,R,ugm-3,74,R,ugm-3
15-01-2011,17:00,0.0,R,ugm-3,8.0,R,ugm-3,8.0,R,ugm-3,74,R,ugm-3
15-01-2011,18:00,0.6,R,ugm-3,8.4,R,ugm-3,9.4,R,ugm-3,74,R,ugm-3
15-01-2011,19:00,1.3,R,ugm-3,7.4,R,ugm-3,9.4,R,ugm-3,78,R,ugm-3
15-01-2011,20:00,1.3,R,ugm-3,8.4,R,ugm-3,10.3,R,ugm-3,76,R,ugm-3
15-01-2011,21:00,1.3,R,ugm-3,7.4,R,ugm-3,9.4,R,ugm-3,78,R,ugm-3
15-01-2011,22:00,1.3,R,ugm-3,7.1,R,ugm-3,9.0,R,ugm-3,78,R,ugm-3
15-01-2011,23:00,1.3,R,ugm-3,7.4,R,ugm-3,9.4,R,ugm-3,80,R,ugm-3